�������l�o���
Date,Time,MP-1(��Sv/h),MP-2(��Sv/h),MP-3(��Sv/h),MP-4(��Sv/h),MP-5(��Sv/h),MP-6(��Sv/h),MP-7(��Sv/h),MP-8(��Sv/h),����,����(m/s),���J
2020/04/21,00:00,0.668,0.942,0.628,1.152,0.806,0.389,0.675,0.643,�k��,7.6,��
2020/04/21,00:10,0.668,0.946,0.626,1.152,0.806,0.388,0.675,0.643,�k��,5.0,��
2020/04/21,00:20,0.670,0.944,0.630,1.151,0.807,0.390,0.677,0.644,�k��,4.6,��
2020/04/21,00:30,0.670,0.945,0.631,1.151,0.806,0.390,0.675,0.643,�k��,4.4,��
2020/04/21,00:40,0.668,0.944,0.628,1.153,0.808,0.389,0.677,0.643,�k��,5.2,��
2020/04/21,00:50,0.668,0.943,0.629,1.152,0.805,0.388,0.677,0.642,�k��,6.6,��
2020/04/21,01:00,0.668,0.944,0.628,1.151,0.806,0.387,0.677,0.644,�k��,9.2,��
2020/04/21,01:10,0.669,0.947,0.629,1.153,0.807,0.390,0.678,0.642,�k��,9.3,��
2020/04/21,01:20,0.670,0.943,0.630,1.152,0.808,0.389,0.676,0.643,�k��,6.9,��
2020/04/21,01:30,0.669,0.945,0.630,1.154,0.809,0.390,0.676,0.644,�k��,4.1,��
2020/04/21,01:40,0.668,0.944,0.629,1.154,0.807,0.388,0.677,0.643,���k��,8.2,��
2020/04/21,01:50,0.670,0.945,0.628,1.156,0.810,0.390,0.677,0.644,���k��,9.1,��
2020/04/21,02:00,0.668,0.948,0.630,1.153,0.808,0.391,0.678,0.642,���k��,11.0,��
2020/04/21,02:10,0.669,0.945,0.630,1.157,0.809,0.389,0.677,0.642,���k��,11.4,��
2020/04/21,02:20,0.670,0.945,0.629,1.154,0.808,0.389,0.677,0.646,���k��,12.0,��
2020/04/21,02:30,0.670,0.947,0.630,1.155,0.808,0.390,0.677,0.642,�k��,13.0,��
2020/04/21,02:40,0.669,0.947,0.628,1.156,0.809,0.390,0.676,0.643,�k��,14.7,��
2020/04/21,02:50,0.669,0.948,0.629,1.154,0.810,0.388,0.677,0.645,�k��,12.7,��
2020/04/21,03:00,0.671,0.945,0.628,1.155,0.810,0.388,0.677,0.645,�k��,13.8,��
2020/04/21,03:10,0.670,0.949,0.630,1.155,0.810,0.390,0.677,0.644,�k��,12.5,��
2020/04/21,03:20,0.671,0.949,0.631,1.154,0.810,0.390,0.677,0.645,�k��,12.5,��
2020/04/21,03:30,0.672,0.946,0.629,1.154,0.809,0.390,0.675,0.646,�k��,11.3,��
2020/04/21,03:40,0.671,0.948,0.631,1.157,0.811,0.390,0.677,0.644,�k��,8.3,��
2020/04/21,03:50,0.669,0.949,0.630,1.158,0.809,0.390,0.677,0.644,�k��,10.2,��
2020/04/21,04:00,0.670,0.949,0.629,1.157,0.810,0.389,0.679,0.646,�k��,7.4,��
2020/04/21,04:10,0.670,0.949,0.630,1.156,0.812,0.389,0.677,0.645,�k��,6.9,��
2020/04/21,04:20,0.672,0.949,0.632,1.157,0.812,0.391,0.677,0.646,��,6.2,��
2020/04/21,04:30,0.671,0.952,0.633,1.158,0.811,0.389,0.677,0.646,���k��,8.0,��
2020/04/21,04:40,0.671,0.950,0.631,1.160,0.813,0.389,0.678,0.645,���k��,8.8,��
2020/04/21,04:50,0.671,0.950,0.630,1.160,0.812,0.390,0.678,0.645,���k��,7.7,��
2020/04/21,05:00,0.671,0.952,0.632,1.159,0.813,0.390,0.678,0.645,���k��,7.3,��
2020/04/21,05:10,0.671,0.951,0.631,1.157,0.814,0.391,0.680,0.645,���k��,5.4,��
2020/04/21,05:20,0.671,0.949,0.631,1.159,0.813,0.389,0.678,0.645,���k��,5.9,��
2020/04/21,05:30,0.673,0.950,0.631,1.159,0.812,0.389,0.677,0.644,���k��,8.5,��
2020/04/21,05:40,0.671,0.950,0.632,1.157,0.811,0.390,0.679,0.645,���k��,6.7,��
2020/04/21,05:50,0.672,0.952,0.630,1.159,0.812,0.391,0.678,0.646,��,6.9,��
2020/04/21,06:00,0.673,0.952,0.633,1.161,0.811,0.389,0.678,0.644,���k��,6.6,��
2020/04/21,06:10,0.671,0.950,0.631,1.160,0.812,0.391,0.678,0.645,��,5.6,��
2020/04/21,06:20,0.670,0.952,0.631,1.160,0.814,0.389,0.680,0.646,���k��,7.8,��
2020/04/21,06:30,0.672,0.952,0.632,1.159,0.814,0.389,0.680,0.646,���k��,7.0,��
2020/04/21,06:40,0.671,0.952,0.631,1.159,0.814,0.388,0.680,0.645,���k��,5.8,��
2020/04/21,06:50,0.672,0.952,0.632,1.159,0.813,0.389,0.678,0.648,���k��,6.2,��
2020/04/21,07:00,0.672,0.954,0.632,1.161,0.812,0.389,0.679,0.647,���k��,8.5,��
2020/04/21,07:10,0.674,0.952,0.633,1.162,0.816,0.390,0.680,0.646,���k��,10.7,��
2020/04/21,07:20,0.672,0.954,0.634,1.160,0.813,0.390,0.679,0.648,��,11.4,��
2020/04/21,07:30,0.671,0.953,0.633,1.163,0.815,0.389,0.678,0.647,��,9.9,��
2020/04/21,07:40,0.673,0.952,0.634,1.163,0.816,0.388,0.679,0.645,��,8.1,��
2020/04/21,07:50,0.674,0.951,0.634,1.164,0.815,0.388,0.678,0.643,��,9.6,��
2020/04/21,08:00,0.674,0.952,0.633,1.164,0.817,0.388,0.677,0.644,��,7.8,��
2020/04/21,08:10,0.674,0.953,0.634,1.164,0.815,0.388,0.679,0.645,��,6.9,��
2020/04/21,08:20,0.674,0.955,0.635,1.165,0.817,0.389,0.680,0.646,���쐼,7.5,��
2020/04/21,08:30,0.675,0.952,0.632,1.163,0.817,0.389,0.681,0.644,���쐼,5.9,��
2020/04/21,08:40,0.675,0.951,0.634,1.162,0.816,0.390,0.681,0.644,���쐼,4.0,��
2020/04/21,08:50,0.674,0.953,0.634,1.164,0.817,0.390,0.678,0.644,��,1.5,��
2020/04/21,09:00,0.673,0.948,0.636,1.164,0.817,0.389,0.679,0.644,��쓌,5.9,��
2020/04/21,09:10,0.672,0.949,0.634,1.164,0.817,0.390,0.678,0.643,�쓌,6.6,��
2020/04/21,09:20,0.672,0.952,0.636,1.165,0.817,0.390,0.679,0.644,�쓌,5.7,��
2020/04/21,09:30,0.675,0.953,0.635,1.162,0.817,0.389,0.679,0.645,�쓌,6.4,��
2020/04/21,09:40,0.674,0.950,0.636,1.164,0.818,0.389,0.678,0.643,��쓌,5.8,��
2020/04/21,09:50,0.675,0.950,0.636,1.165,0.817,0.389,0.680,0.643,��쓌,7.7,��
2020/04/21,10:00,0.675,0.951,0.636,1.167,0.818,0.390,0.680,0.644,��쓌,7.8,��
2020/04/21,10:10,0.673,0.949,0.636,1.166,0.819,0.389,0.680,0.644,��쓌,8.5,��
2020/04/21,10:20,0.672,0.951,0.636,1.168,0.820,0.391,0.679,0.645,��쓌,8.1,��
2020/04/21,10:30,0.673,0.955,0.635,1.166,0.818,0.391,0.681,0.644,��쓌,7.7,��
2020/04/21,10:40,0.675,0.957,0.635,1.166,0.820,0.390,0.680,0.644,��,6.2,��
2020/04/21,10:50,0.676,0.956,0.636,1.167,0.819,0.389,0.679,0.645,��,5.7,��
2020/04/21,11:00,0.676,0.956,0.638,1.169,0.819,0.389,0.679,0.646,��,6.7,��
2020/04/21,11:10,0.678,0.958,0.637,1.166,0.822,0.388,0.681,0.646,��쓌,7.8,��
2020/04/21,11:20,0.674,0.957,0.638,1.165,0.821,0.388,0.681,0.644,��쓌,10.2,��
2020/04/21,11:30,0.675,0.957,0.636,1.167,0.821,0.387,0.681,0.646,��쓌,9.5,��
2020/04/21,11:40,0.674,0.957,0.637,1.168,0.822,0.389,0.681,0.644,��쓌,9.6,��
2020/04/21,11:50,0.676,0.961,0.638,1.165,0.824,0.392,0.682,0.645,��,6.1,��
2020/04/21,12:00,0.679,0.961,0.639,1.168,0.823,0.393,0.682,0.645,��,6.2,��
2020/04/21,12:10,0.678,0.961,0.638,1.168,0.823,0.393,0.682,0.645,��,7.1,��
2020/04/21,12:20,0.679,0.958,0.638,1.165,0.823,0.392,0.681,0.647,��,8.5,��
2020/04/21,12:30,0.682,0.963,0.639,1.169,0.823,0.395,0.683,0.645,��,9.7,��
2020/04/21,12:40,0.677,0.961,0.639,1.169,0.823,0.391,0.683,0.646,��,10.5,��
2020/04/21,12:50,0.678,0.963,0.637,1.168,0.825,0.393,0.681,0.647,��쓌,11.7,��
2020/04/21,13:00,0.677,0.961,0.639,1.168,0.823,0.393,0.681,0.645,��,9.9,��
2020/04/21,13:10,0.678,0.962,0.639,1.167,0.826,0.393,0.683,0.647,��,8.8,��
2020/04/21,13:20,0.678,0.963,0.639,1.168,0.824,0.394,0.681,0.648,��,8.7,��
2020/04/21,13:30,0.680,0.961,0.640,1.168,0.825,0.394,0.684,0.646,��,7.8,��
2020/04/21,13:40,0.678,0.961,0.638,1.170,0.825,0.394,0.682,0.646,��,6.6,��
2020/04/21,13:50,0.677,0.961,0.639,1.169,0.824,0.393,0.682,0.646,��,7.1,��
2020/04/21,14:00,0.676,0.957,0.638,1.168,0.826,0.393,0.681,0.648,��,8.9,��
2020/04/21,14:10,0.678,0.961,0.637,1.170,0.818,0.394,0.683,0.646,��,9.7,��
2020/04/21,14:20,0.677,0.962,0.637,1.170,0.807,0.392,0.682,0.647,��쐼,9.1,��
2020/04/21,14:30,0.676,0.958,0.640,1.170,0.806,0.393,0.683,0.645,��,8.5,��
2020/04/21,14:40,0.678,0.964,0.636,1.170,0.823,0.393,0.682,0.647,��,6.3,��
2020/04/21,14:50,0.680,0.963,0.634,1.171,0.826,0.395,0.682,0.648,��쐼,4.8,��
2020/04/21,15:00,0.680,0.965,0.637,1.169,0.824,0.394,0.682,0.647,�쐼,4.6,��
2020/04/21,15:10,0.678,0.964,0.638,1.169,0.827,0.395,0.683,0.647,���쐼,4.2,��
2020/04/21,15:20,0.680,0.965,0.641,1.170,0.824,0.395,0.682,0.649,���쐼,2.9,��
2020/04/21,15:30,0.680,0.967,0.644,1.170,0.826,0.394,0.682,0.649,��,1.8,��
2020/04/21,15:40,0.682,0.967,0.642,1.171,0.826,0.395,0.680,0.647,��,2.6,��
2020/04/21,15:50,0.682,0.969,0.642,1.173,0.827,0.395,0.682,0.648,���k��,2.6,��
2020/04/21,16:00,0.683,0.970,0.642,1.171,0.828,0.395,0.684,0.649,�k,4.2,��
2020/04/21,16:10,0.680,0.969,0.641,1.170,0.827,0.395,0.684,0.649,�k,4.7,��
2020/04/21,16:20,0.680,0.967,0.642,1.172,0.829,0.395,0.681,0.648,�k,4.8,��
2020/04/21,16:30,0.681,0.968,0.643,1.169,0.826,0.394,0.680,0.649,�k,4.9,��
2020/04/21,16:40,0.679,0.968,0.642,1.169,0.824,0.392,0.681,0.649,�k�k��,5.6,��
2020/04/21,16:50,0.680,0.967,0.643,1.173,0.826,0.394,0.681,0.648,�k�k��,5.6,��
2020/04/21,17:00,0.680,0.968,0.642,1.171,0.827,0.392,0.682,0.648,�k�k��,5.5,��
2020/04/21,17:10,0.682,0.969,0.642,1.173,0.827,0.394,0.680,0.648,�k�k��,5.5,��
2020/04/21,17:20,0.680,0.971,0.643,1.170,0.826,0.393,0.681,0.650,�k�k��,5.3,��
2020/04/21,17:30,0.682,0.967,0.640,1.172,0.827,0.394,0.682,0.649,�k�k��,6.0,��
2020/04/21,17:40,0.681,0.968,0.641,1.171,0.828,0.394,0.681,0.647,�k�k��,5.8,��
2020/04/21,17:50,0.681,0.969,0.643,1.170,0.828,0.394,0.682,0.649,�k,5.2,��
2020/04/21,18:00,0.681,0.969,0.642,1.172,0.829,0.394,0.683,0.648,�k�k��,4.8,��
2020/04/21,18:10,0.681,0.967,0.641,1.171,0.826,0.394,0.682,0.649,�k�k��,5.0,��
2020/04/21,18:20,0.681,0.972,0.641,1.171,0.826,0.393,0.680,0.648,�k�k��,5.6,��
2020/04/21,18:30,0.681,0.967,0.642,1.173,0.828,0.393,0.683,0.650,�k�k��,5.6,��
2020/04/21,18:40,0.682,0.969,0.643,1.173,0.826,0.392,0.682,0.651,�k,5.7,��
2020/04/21,18:50,0.681,0.970,0.642,1.171,0.827,0.393,0.682,0.651,�k�k��,6.0,��
2020/04/21,19:00,0.681,0.967,0.641,1.171,0.829,0.392,0.681,0.649,�k�k��,5.3,��
2020/04/21,19:10,0.680,0.969,0.642,1.171,0.830,0.392,0.682,0.649,�k�k��,6.1,��
2020/04/21,19:20,0.681,0.970,0.642,1.172,0.829,0.393,0.682,0.650,�k�k��,5.5,��
2020/04/21,19:30,0.682,0.969,0.642,1.170,0.827,0.393,0.682,0.651,�k�k��,5.1,��
2020/04/21,19:40,0.680,0.968,0.641,1.172,0.829,0.393,0.682,0.651,�k�k��,6.2,��
2020/04/21,19:50,0.681,0.968,0.641,1.173,0.828,0.392,0.682,0.650,�k,5.3,��
2020/04/21,20:00,0.679,0.969,0.641,1.171,0.830,0.392,0.680,0.650,�k,4.9,��
2020/04/21,20:10,0.679,0.970,0.642,1.172,0.829,0.391,0.682,0.648,�k,4.9,��
2020/04/21,20:20,0.681,0.970,0.641,1.173,0.827,0.392,0.682,0.650,�k�k��,5.8,��
2020/04/21,20:30,0.681,0.970,0.642,1.173,0.829,0.391,0.682,0.651,�k�k��,5.6,��
2020/04/21,20:40,0.679,0.969,0.641,1.171,0.829,0.392,0.682,0.650,�k�k��,6.2,��
2020/04/21,20:50,0.679,0.968,0.642,1.172,0.830,0.392,0.682,0.651,�k,6.1,��
2020/04/21,21:00,0.680,0.967,0.642,1.170,0.829,0.393,0.681,0.651,�k�k��,6.9,��
2020/04/21,21:10,0.679,0.969,0.641,1.172,0.832,0.392,0.681,0.651,�k�k��,7.2,��
2020/04/21,21:20,0.680,0.968,0.641,1.173,0.830,0.393,0.682,0.650,�k�k��,6.5,��
2020/04/21,21:30,0.678,0.969,0.642,1.174,0.829,0.391,0.681,0.650,�k,5.7,��
2020/04/21,21:40,0.680,0.968,0.642,1.173,0.828,0.392,0.683,0.649,�k,5.0,��
2020/04/21,21:50,0.681,0.968,0.642,1.171,0.832,0.392,0.683,0.651,�k,5.1,��
2020/04/21,22:00,0.679,0.968,0.643,1.173,0.829,0.391,0.681,0.652,�k,5.3,��
2020/04/21,22:10,0.680,0.969,0.641,1.172,0.832,0.393,0.683,0.650,�k,5.0,��
2020/04/21,22:20,0.680,0.968,0.640,1.173,0.830,0.392,0.681,0.651,�k,5.0,��
2020/04/21,22:30,0.679,0.969,0.642,1.173,0.830,0.392,0.682,0.652,�k,4.9,��
2020/04/21,22:40,0.679,0.970,0.641,1.173,0.830,0.391,0.683,0.651,�k,5.0,��
2020/04/21,22:50,0.680,0.971,0.642,1.171,0.830,0.393,0.683,0.650,�k,4.7,��
2020/04/21,23:00,0.680,0.967,0.641,1.172,0.831,0.391,0.682,0.652,�k,4.9,��
2020/04/21,23:10,0.680,0.968,0.641,1.171,0.829,0.392,0.683,0.651,�k,4.5,��
2020/04/21,23:20,0.679,0.969,0.641,1.174,0.831,0.393,0.684,0.650,�k,5.1,��
2020/04/21,23:30,0.680,0.969,0.643,1.171,0.829,0.394,0.682,0.649,�k,5.5,��
2020/04/21,23:40,0.679,0.969,0.643,1.174,0.831,0.393,0.682,0.650,�k,5.1,��
2020/04/21,23:50,0.680,0.971,0.641,1.172,0.832,0.392,0.684,0.649,�k,5.0,��
